www.pogodaiklimat.ru

Погода и климат >> Архив погоды >> Нигер >> Тиллабери


ПОГОДА в Тиллабери

  • Прогноз погоды в Тиллабери
  • Монитор погоды в Тиллабери

АРХИВ ПОГОДЫ в Тиллабери

Время (UTC), дата Ветер
(напр.,м/с)
 
Видим.   Явления Облачность Т
(С)
Тd
(С)
f
(%)
Тe
(С)
Тes
(С)
Комфортность P
(гПа)
Po
(гПа)
Тmin
(С)
Tmax
(С)
R
(мм)
R24
(мм)
S
(см)
09 20.05 ЮЗ 4 10 км 9/9 1200 м
[Cu med, cong Ac trans Ci sp]
+33.7 +19.3 43 +39 +40 очень
душно
1008.7 985.7
12 20.05 В 2 10 км в посл. час дождь {гроза} 9/9 1200 м
[Cu med, cong Ac As Ci sp]
+33.0 +21.4 51 +41 +43 опасность
перегрева
1008.9 985.8 2
15 20.05 СЗ 6 10 км 9/1 1200 м
[Cu med, cong Ac As Ci sp]
+38.5 +16.4 27 +40 +43 очень
душно
1006.1 983.1
18 20.05 ЮЗ 4 8000 м 6/0
[Ac trans Ci sp]
+36.5 +22.8 45 +46 +46 опасность
перегрева
1005.0 982.0 +39.5 2
21 20.05 штиль 0 10 км 6/0
[Ac trans Ci sp]
+34.8 +17.7 36 +38 +38 очень
душно
1006.1 983.1
03 21.05 штиль 0 8000 м мгла 9/0
[Ac trans Ci sp]
+32.0 +20.2 50 +39 +39 очень
душно
1007.6 984.7
06 21.05 Ю 8 10 км 9/0
[Cs]
+29.2 +22.3 66 +38 +38 очень
душно
1009.4 986.3 +22.9 2
09 21.05 ЮЗ 10 10 км 10/0
[Ac As]
+31.8 +21.2 53 +39 +40 очень
душно
1010.8 987.7
12 21.05 ЮЗ 10 10 км 10/0
[As op]
+34.5 +21.5 47 +42 +43 опасность
перегрева
1010.1 989.0
15 21.05 ЮЗ 2 10 км 9/0
[As op Cs]
+37.5 +20.4 37 +43 +50 опасность
перегрева
1007.1 984.2
18 21.05 штиль 0 6000 м мгла 9/0
[As op Cs]
+36.0 +20.8 41 +43 +43 опасность
перегрева
1005.8 982.8 +38.0
21 21.05 штиль 0 10 км 9/0
[Cs]
+34.3 +20.8 45 +41 +41 опасность
перегрева
1007.5 984.4
03 22.05 штиль 0 10 км 9/0
[Ac As Ci sp]
+31.8 +22.0 56 +40 +40 очень
душно
1007.6 984.7
06 22.05 штиль 0 10 км 9/0
[Ac As Cs]
+30.7 +22.2 61 +40 +40 очень
душно
1008.8 985.7 +30.6
09 22.05 ЮЗ 10 10 км 9/0
[Cs]
+35.0 +20.9 44 +42 +43 опасность
перегрева
1009.7 986.8
12 22.05 Ю 2 10 км 9/1 1200 м
[Cu med, cong Cs]
+38.5 +20.4 35 +44 +61 опасность
перегрева
1008.7 985.8
15 22.05 ЮЗ 4 10 км 9/3 1200 м
[Cu med, cong Cs]
+41.0 +19.6 29 +46 +50 опасность
перегрева
1006.2 983.4
18 22.05 СВ 12 10 км гроза без осадков 10/9 1200 м
[Cb cap Ac As]
+36.0 +19.8 39 +42 +42 опасность
перегрева
1005.6 982.6 +41.5
21 22.05 СЗ 8 10 км {гроза} 9/0
[Ac As Ci sp]
+30.0 +20.4 56 +37 +37 очень
душно
1008.8 985.7
03 23.05 штиль 0 10 км 6/0
[Ci sp]
+30.0 +21.2 59 +38 +38 очень
душно
1007.9 985.0
06 23.05 штиль 0 10 км 6/0
[Ci sp]
+29.0 +21.7 65 +37 +37 очень
душно
1009.0 985.9 +29.0 0.5
09 23.05 СЗ 6 10 км 9/0
[Cs]
+33.6 +21.8 50 +42 +46 опасность
перегрева
1009.2 986.0
12 23.05 З 6 10 км 9/0
[Cs]
+38.5 +19.8 34 +44 +51 опасность
перегрева
1008.0 985.1
15 23.05 З 4 10 км 9/1 1200 м
[Cu hum Cs]
+41.0 +17.4 25 +43 +49 опасность
перегрева
1005.1 982.3
18 23.05 штиль 0 10 км 9/1 1200 м
[Cb cap Ac lent Cs]
+39.4 +18.8 30 +43 +43 опасность
перегрева
1004.4 981.5 +42.0
21 23.05 штиль 0 10 км в посл. час гроза 9/0
[Ac As Ci sp]
+36.5 +16.6 31 +39 +39 очень
душно
1006.2 983.3
03 24.05 ЮЗ 4 10 км гроза без осадков 9/1 1200 м
[Cb cap Ac As Ci sp]
+26.0 +20.7 73 +33 +33 очень
душно
1008.1 985.1
06 24.05 ЮЗ 6 10 км в посл. час дождь {гроза} 10/0
[Ac As]
+27.5 +20.0 64 +34 +34 очень
душно
1006.5 983.5 +25.0 7
09 24.05 штиль 0 10 км 10/0
[Ac As]
+29.4 +23.1 69 +39 +44 очень
душно
1010.4 987.3
12 24.05 ЮЗ 4 10 км в посл. час дождь 10/0
[Ac As]
+30.0 +24.4 72 +42 +47 опасность
перегрева
1008.9 985.7 0.2
15 24.05 СЗ 4 10 км 10/0
[Ac As]
+32.4 +22.6 56 +42 +44 опасность
перегрева
1006.6 983.2
18 24.05 штиль 0 10 км 10/0
[As op]
+32.2 +21.8 54 +41 +41 опасность
перегрева
1006.5 983.2 +33.0 0.2
21 24.05 штиль 0 10 км 9/0
[Cs]
+30.0 +21.7 61 +38 +38 очень
душно
1007.4 984.1
03 25.05 штиль 0 10 км 10/0
[Ac As]
+28.0 +22.5 72 +37 +37 очень
душно
1007.6 984.3
06 25.05 штиль 0 10 км 9/0
[Ac trans Cs]
+28.2 +23.4 75 +38 +38 очень
душно
1008.0 984.7 +27.5 0.2
09 25.05 З 6 10 км 9/0
[Ac trans Cs]
+33.5 +19.4 43 +39 +43 очень
душно
1009.2 986.0
12 25.05 З 6 10 км 9/0
[Cs]
+37.4 +17.1 30 +40 +47 очень
душно
1008.4 985.4
15 25.05 З 4 10 км 9/0
[Cs]
+39.0 +15.6 25 +40 +47 очень
душно
1006.3 983.3
18 25.05 ЮЗ 2 10 км 9/0
[Ac trans Cs]
+36.5 +17.0 32 +39 +40 очень
душно
1005.5 982.5 +39.5
21 25.05 штиль 0 10 км 9/0
[Cs]
+33.5 +17.9 40 +38 +38 очень
душно
1006.0 983.0
03 26.05 штиль 0 10 км 6/0
[Ci sp]
+29.4 +21.5 63 +37 +37 очень
душно
1006.9 984.0
06 26.05 штиль 0 10 км 6/0
[Ci sp]
+28.4 +20.0 60 +35 +35 очень
душно
1007.9 984.8 +28.0
09 26.05 СЗ 12 10 км 6/0
[Ci sp]
+35.0 +20.0 42 +41 +41 опасность
перегрева
1008.7 985.5
12 26.05 З 10 10 км 6/0
[Ci sp]
+40.0 +16.7 26 +42 +43 опасность
перегрева
1007.6 984.8
15 26.05 СЗ 4 10 км 6/0
[Ci sp]
+42.5 +13.6 18 +42 +49 опасность
перегрева
1003.9 981.1
18 26.05 штиль 0 10 км 6/0
[Ci sp]
+40.6 +16.8 25 +43 +43 опасность
перегрева
1003.1 980.3 +43.5
21 26.05 штиль 0 10 км 6/0
[Ci sp]
+35.0 +16.5 33 +38 +38 очень
душно
1004.6 981.7
03 27.05 ЮЗ 4 10 км 9/0
[Ac trans Ci sp]
+33.0 +18.8 43 +38 +38 очень
душно
1004.3 981.7
06 27.05 штиль 0 10 км 9/0
[Ac trans Ci sp]
+32.0 +20.9 52 +39 +40 очень
душно
1005.7 982.9 +31.8

 

Местоположение метеостанции Тиллабери (Нигер): широта 14.20 долгота 1.45 высота над уровнем моря 210 м.

В архиве по умолчанию представлена погода в Тиллабери за последнюю неделю. Архивные данные за месяц целиком и за предыдущие месяцы, начиная с января 2011 года, Вы можете получить, выбрав интересующий диапазон дат из раскрывающегося списка и нажав кнопку "Ввод!".


*Определитесь, кто Вы:
робот инопланетянин человек

Внимание! Время в таблицах - всемирное. Для получения местного времени необходимо прибавить поправку, которая равна 1 ч.

Смотрите также архив погоды в соседних городах и на ближайших метеорологических станциях:

Погода в Ниамее (Нигер) (112 км)
Погода в Дори (Буркина-Фасо) (161 км)
Погода в Досо (Нигер) (231 км)
Погода в Фада-Нгурме (Буркина-Фасо) (268 км)
Погода в Гае (Нигер) (337 км)
Погода в Канди (Бенин) (377 км)
Погода в Уагадугу (Буркина-Фасо) (382 км)
Погода в Дапаоне (Того) (389 км)
Погода в Вирнин-Конни (Нигер) (413 км)
Погода в Тахве (Нигер) (416 км)

Пояснения к столбцам:

Ветер - указаны скорость ветра в м/с - средняя за 10 мин, порывы в срок и между сроками (в фигурных скобках) и направление, откуда дует ветер: С - северный, СВ - северо-восточный, В - восточный, ЮВ - юго-восточный, Ю - южный, ЮЗ - юго-западный, З - западный, СЗ - северо-западный.
Видимость - горизонтальная дальность видимости в метрах или километрах. При видимости от 1 до 10 км при отсутствии осадков обычно наблюдается дымка, при ухудшении видимости до 1 км и менее - туман. В сухую погоду видимость может ухудшаться дымом, пылью или мглою.
Явления - указаны атмосферные явления, наблюдавшиеся в срок или в последний час перед сроком; фигурными скобками обозначены явления, наблюдавшиеся между сроками (за 1-3 часа до срока); квадратными скобками обозначены град или гололедные отложения с указанием их диаметра в мм.
Облачность - указаны через наклонную черту общая и нижняя облачность в баллах и высота нижней границы облаков в метрах; квадратными скобками обозначены формы облаков: Ci - перистые, Cs - перисто-слоистые, Cc - перисто-кучевые, Ac - высококучевые, As - высокослоистые, Sc - слоисто-кучевые, Ns - слоисто-дождевые, Cu - кучевые, Cb - кучево-дождевые. Подробнее классификацию облаков см. в Атласе облаков (PDF).
T - Температура воздуха - температура, измеренная на высоте 2 м над землей.
Td - Температура точки росы - температура, при понижении до которой содержащийся в воздухе водяной пар достигнет насыщения.
f - Относительная влажность воздуха - влажноcть воздуха, измеренная на высоте 2 м над землей.
Te - Эффективная температура - температура, которую ощущает одетый по сезону человек в тени. Характеристика душности погоды. При расчете учитывается влияние влажности воздуха и скорости ветра на теплоощущения человека.
Tes - Эффективная температура на солнце - температура, которую ощущает человек, с поправкой на солнечный нагрев. Характеристика знойности погоды. Зависит от высоты солнца над горизонтом, облачности и скорости ветра. Ночью, в пасмурную погоду, а также при ветре 12 м/с и более поправка равна нулю.
P - Атмосферное давление - приведенное к уровню моря атмосферное давление.
Po - Атмосферное давление - измеренное на уровне метеостанции атмосферное давление.
Tmin - Минимальная температура - минимум температуры воздуха на высоте 2 м над землей.
Tmax - Максимальная температура - максимум температуры воздуха на высоте 2 м над землей.
R - Количество осадков - Количество выпавших осадков за период времени, мм. При наведении курсора мыши на число - период времени, за который выпало указанное количество осадков.
R24 - Количество осадков - Количество выпавших осадков за 24 часа, мм.
S - Снежный покров - Высота снежного покрова, см. При наведении курсора мыши на число - состояние снежного покрова и степень покрытия местности в баллах.